Location: Hurecourt
(47.9030°N, 6.0653°E)
Time: 10:26:10
(UTC+00:00)

CZ-2D R/B - Pass Details

Date: 14 July 2020
Orbit: 553 x 639 km, 97.9° (Epoch: 05 August)

Event Time Altitude Azimuth Distance (km) Brightness Sun altitude
Rises 02:37:19 0° 15° (NNE) 2,936 8.3 -10.1°
Reaches altitude 10° 02:39:34 10° 18° (NNE) 2,014 7.4 -9.9°
Maximum altitude 02:43:56 67° 102° (ESE) 675 3.9 -9.4°
Drops below altitude 10° 02:48:10 10° 185° (S) 1,951 5.7 -8.9°
Enters shadow 02:49:02 - 186° (S) 2,309 6.0 -8.8°
